Погода в Понсе

Пуэрто-Рико     18°00′27″N   66°36′14″W
темп.,
°C
ветер,
м/с
пор.,
м/с
влажн.,
%
обл.,
%
осадки,
мм/ч
давл.,
гПа
погр.,
м
9 августа, вт
вт923:00+25ссв46801 0.0 1016216
02:00+24ссв46833 0.0 1015195
05:00+25ссв45825 0.0 1015163
08:00+28св476153 0.0 1016953
11:00+32в674960 0.0 10171138
14:00+32вюв885355 0.0 10151129
17:00+31в7855100 0.0 10141071
20:00+27св367894 0.1 1016309
10 августа, ср
ср1023:00+25ссв3483100 0.0 1017200
02:00+25св2383100 0.0 1015161
05:00+25св2379100 0.1 1016280
08:00+28всв4667100 0.1 1017995
11:00+30юв6658100 0.0 10171146
14:00+30юв986294 0.0 1016952
17:00+29вюв8865100 0.0 1014786
20:00+27в5773100 0.1 1016482
11 августа, чт
чт1123:00+25ссв3480100 0.0 1017133
02:00+25св2380100 0.0 1015151
05:00+24ссв2382100 0.0 1015169
08:00+27всв366829 0.1 1015748
11:00+30вюв786268 0.0 10161166
14:00+29юв996898 0.4 1015939
17:00+28вюв787069 0.6 1014779
20:00+27в467594 0.8 1015381
12 августа, пт
пт1223:00+25св348098 0.1 1016268
02:00+25всв3480100 0.2 1015365
05:00+25всв347923 0.1 1015352
08:00+28в567075 0.2 1016973
11:00+30вюв77607 0.1 10161184
14:00+29юв77709 0.1 1015829
17:00+29юв776910 0.2 1014722
20:00+26в467432 0.2 1015301
13 августа, сб
сб1323:00+24св33820 0.0 1016130
02:00+23ссв33835 0.0 1015108
05:00+23с348320 0.0 1015115
08:00+28св466251 0.0 1015829
11:00+30юв77596 0.0 10161213
14:00+30юв996520 0.1 10141014
17:00+29юв896521 0.1 1013760
20:00+27в45746 0.1 1014263